Home > Weather > Petersburg > Past weeks

Flag for USA Past Weather in Petersburg, Indiana, USA — Yesterday and Last 2 Weeks

Now
90 °F

Sunny.


Feels Like: 91 °F
Forecast: 73 / 90 °F
Wind: 6 mph from North

Location: Huntingburg Airport

Current Time: Jun 27, 2016 at 6:23:34 PM

Latest Report: Jun 27, 2016 at 5:55 PM


Visibility: 10 mi

Pressure: 30.03 "Hg

Humidity: 43%

Dew Point: 64 °F

Location of PetersburgLocation

Past Weather in Petersburg — Graph

°F

Petersburg Temperature Yesterday

Maximum temperature yesterday: 97 °F (at 3:35 PM)
Minimum temperature yesterday: 72 °F (at 3:55 AM)
Average temperature yesterday: 84 °F

High & Low Weather Summary for the Past Weeks

 TemperatureHumidityPressure
High97 °F (Jun 26, 3:35 PM)94% (Jun 15, 5:35 AM)30.30 "Hg (Jun 15, 5:35 AM)
Low64 °F (Jun 17, 5:55 AM)34% (Jun 26, 3:35 PM)29.79 "Hg (Jun 16, 6:35 PM)
Average80 °F67%30.01 "Hg
* Reported Jun 12 5:15 PM — Jun 27 5:15 PM, Petersburg, Weather by CustomWeather, © 2016

Note: Actual official high and low records may vary slightly from our data, if they occured in-between our weather recording intervals... More about our weather records

Advertising

Petersburg Weather History for the Previous 24 Hours

Scroll right to see more
 ConditionsComfort  
Time TempWeatherWind HumidityBarometerVisibility
5:15 PM
Mon, Jun 27
90 °FSunny.3 mph46%30.03 "Hg10 mi
4:55 PM88 °FSunny.7 mph46%30.03 "Hg10 mi
4:35 PM88 °FSunny.12 mph46%30.03 "Hg10 mi
4:15 PM88 °FSunny.10 mph49%30.04 "Hg10 mi
3:55 PM88 °FSunny.8 mph49%30.04 "Hg10 mi
3:35 PM86 °FSunny.9 mph59%30.05 "Hg10 mi
3:15 PM84 °FSunny.6 mph62%30.06 "Hg10 mi
2:55 PM82 °FSunny.8 mph70%30.06 "Hg10 mi
2:35 PM82 °FSunny.8 mph70%30.07 "Hg10 mi
2:15 PM82 °FSunny.8 mph70%30.08 "Hg10 mi
1:55 PM81 °FSunny.7 mph74%30.08 "Hg10 mi
1:35 PM81 °FSunny.8 mph74%30.09 "Hg10 mi
1:15 PM81 °FSunny.5 mph74%30.10 "Hg10 mi
12:55 PM79 °FSunny.No wind79%30.11 "Hg10 mi
12:35 PM79 °FSunny.5 mph79%30.11 "Hg10 mi
12:15 PM79 °FSunny.5 mph79%30.12 "Hg10 mi
11:55 AM79 °FSunny.5 mph79%30.11 "Hg10 mi
11:35 AM79 °FScattered clouds.5 mph79%30.12 "Hg10 mi
11:15 AM75 °FOvercast.5 mph83%30.12 "Hg10 mi
10:55 AM75 °FMostly cloudy.No wind83%30.12 "Hg10 mi
10:35 AM75 °FMostly cloudy.No wind83%30.12 "Hg10 mi
10:15 AM75 °FPartly sunny.No wind83%30.12 "Hg10 mi
9:55 AM75 °FPartly sunny.5 mph83%30.12 "Hg10 mi
9:35 AM73 °FOvercast.No wind89%30.11 "Hg10 mi
9:15 AM73 °FOvercast.6 mph89%30.10 "Hg10 mi
8:55 AM73 °FOvercast.8 mph89%30.10 "Hg10 mi
8:35 AM73 °FOvercast.7 mph89%30.08 "Hg10 mi
8:15 AM73 °FMostly cloudy.5 mph89%30.08 "Hg10 mi
7:55 AM73 °FBroken clouds.3 mph89%30.08 "Hg8 mi
7:35 AM73 °FMostly cloudy.3 mph89%30.08 "Hg6 mi
7:15 AM73 °FMostly cloudy.3 mph83%30.08 "Hg7 mi
6:55 AM73 °FMostly cloudy.7 mph83%30.08 "Hg6 mi
6:35 AM73 °FMostly cloudy.8 mph83%30.08 "Hg6 mi
6:15 AM73 °FPassing clouds.6 mph83%30.09 "Hg9 mi
5:55 AM73 °FPassing clouds.7 mph83%30.08 "Hg10 mi
5:35 AM73 °FPassing clouds.7 mph83%30.07 "Hg10 mi
5:15 AM73 °FOvercast.6 mph83%30.06 "Hg9 mi
4:55 AM73 °FPassing clouds.No wind83%30.05 "Hg10 mi
4:35 AM73 °FClear.3 mph83%30.04 "Hg8 mi
4:15 AM73 °FClear.No wind83%30.04 "Hg10 mi
3:55 AM72 °FClear.No wind88%30.03 "Hg10 mi
3:35 AM73 °FClear.No wind83%30.04 "Hg10 mi
3:15 AM72 °FClear.No wind83%30.03 "Hg10 mi
2:55 AM72 °FClear.No wind83%30.03 "Hg10 mi
2:35 AM72 °FClear.6 mph83%30.03 "Hg10 mi
2:15 AM72 °FPassing clouds.5 mph83%30.03 "Hg10 mi
1:55 AM72 °FMostly cloudy.No wind83%30.04 "Hg10 mi
1:35 AM72 °FOvercast.5 mph83%30.05 "Hg8 mi
1:15 AM72 °FOvercast.No wind83%30.07 "Hg10 mi
12:55 AM72 °FOvercast.5 mph83%30.07 "Hg10 mi
12:35 AM72 °FThundershowers. Overcast.5 mph83%30.09 "Hg10 mi
12:15 AM72 °FThunderstorms. Partly cloudy.8 mph83%30.10 "Hg8 mi
11:55 PM
Sun, Jun 26
72 °FThunderstorms. Mostly cloudy.8 mph83%30.11 "Hg5 mi
11:35 PM73 °FThunderstorms. Overcast.14 mph78%30.11 "Hg10 mi
11:15 PM75 °FThundershowers. Mostly cloudy.8 mph74%30.10 "Hg9 mi
10:55 PM79 °FMostly cloudy.18 mph65%30.10 "Hg10 mi
10:35 PM82 °FMostly cloudy.13 mph62%30.08 "Hg10 mi
10:15 PM84 °FPassing clouds.5 mph62%30.05 "Hg10 mi
9:55 PM84 °FScattered clouds.6 mph62%30.04 "Hg10 mi
9:35 PM84 °FPassing clouds.5 mph58%30.03 "Hg10 mi
9:15 PM88 °FScattered clouds.7 mph52%30.02 "Hg10 mi
8:55 PM88 °FPassing clouds.8 mph55%30.02 "Hg10 mi
8:35 PM88 °FScattered clouds.8 mph55%30.01 "Hg10 mi
8:15 PM90 °FSunny.8 mph46%30.00 "Hg10 mi
7:55 PM91 °FSunny.10 mph44%30.00 "Hg10 mi
7:35 PM91 °FSunny.10 mph41%29.99 "Hg10 mi
7:15 PM93 °FSunny.12 mph39%29.98 "Hg10 mi
6:55 PM93 °FSunny.13 mph39%29.97 "Hg10 mi
6:35 PM93 °FSunny.10 mph39%29.98 "Hg10 mi
6:15 PM95 °FPassing clouds.13 mph36%29.98 "Hg10 mi
Weather by CustomWeather, © 2016

See weather overviewHow to use our weather pages